This is the latest recevied weather packets stored in our database for station/object K2CAT. If no packets are shown the sender has not sent any weather packets the latest 10 day(s).
| Time | Temp. | Humidity | Pressure | Rain* | Wind** | Luminosity | Snow |
|---|---|---|---|---|---|---|---|
| 1777319507 | 23.89° C | 31% | 1021.7 hPa | 0 mm | - | 494 W/m² | - |
| 1777319204 | 24.44° C | 32% | 1021.9 hPa | 0 mm | - | 508 W/m² | - |
| 1777318901 | 23.89° C | 31% | 1021.8 hPa | 0 mm | - | 519 W/m² | - |
| 1777318598 | 23.89° C | 32% | 1022.1 hPa | 0 mm | - | 528 W/m² | - |
| 1777318294 | 23.89° C | 33% | 1022.3 hPa | 0 mm | - | 538 W/m² | - |
| 1777317990 | 23.89° C | 32% | 1022.2 hPa | 0 mm | - | 550 W/m² | - |
| 1777317688 | 24.44° C | 31% | 1022.1 hPa | 0 mm | - | 559 W/m² | - |
| 1777317385 | 23.89° C | 32% | 1022.1 hPa | 0 mm | - | 568 W/m² | - |
| 1777317080 | 23.89° C | 32% | 1022.5 hPa | 0 mm | - | 578 W/m² | - |
| 1777316778 | 23.89° C | 34% | 1022.3 hPa | 0 mm | - | 588 W/m² | - |
| 1777316474 | 24.44° C | 29% | 1022.3 hPa | 0 mm | - | 597 W/m² | - |
| 1777316171 | 23.89° C | 33% | 1022.5 hPa | 0 mm | - | 605 W/m² | - |
| 1777315869 | 23.33° C | 34% | 1022.4 hPa | 0 mm | - | 613 W/m² | - |
| 1777315568 | 23.89° C | 37% | 1022.5 hPa | 0 mm | - | 621 W/m² | - |
| 1777315265 | 23.33° C | 34% | 1022.5 hPa | 0 mm | - | 628 W/m² | - |
| 1777314963 | 22.78° C | 36% | 1022.4 hPa | 0 mm | - | 634 W/m² | - |
| 1777314658 | 23.33° C | 41% | 1022.7 hPa | 0 mm | - | 642 W/m² | - |
| 1777314355 | 22.78° C | 36% | 1023 hPa | 0 mm | - | 651 W/m² | - |
| 1777314052 | 23.33° C | 37% | 1022.8 hPa | 0 mm | - | 666 W/m² | - |
| 1777313750 | 23.33° C | 38% | 1023 hPa | 0 mm | - | 657 W/m² | - |
| 1777313447 | 22.78° C | 35% | 1022.8 hPa | 0 mm | - | 665 W/m² | - |
| 1777313144 | 22.78° C | 37% | 1023 hPa | 0 mm | - | 670 W/m² | - |
| 1777312839 | 22.78° C | 36% | 1023.2 hPa | 0 mm | - | 675 W/m² | - |
| 1777312537 | 22.78° C | 38% | 1023.1 hPa | 0 mm | - | 680 W/m² | - |
| 1777312234 | 22.78° C | 48% | 1023.2 hPa | 0 mm | - | 685 W/m² | - |
* Rain latest hour (hover to see other rain measurements)
** Current wind speed in m/s (hover to see current wind gust speed)